• In Germany
  • List of Countries
  • For 7 days
  • Water Temperature
  • Satellite Maps
  • Weather Map
  • Weather Widgets
  • user-avatar
    Login

    Hourly Weather Megri

    Today, 21 October, Saturday

    Time Temperature Precipitation Wind Pressure Humidity
    00:00 +7°C° 0 mm 0 mps 623 mmHg 41%
    01:00 +7°C° 0 mm 0 mps 623 mmHg 41%
    02:00 +6°C° 0 mm 0 mps 623 mmHg 41%
    03:00 +7°C° 0 mm 1 mps 622 mmHg 40%
    04:00 +6°C° 0 mm 0 mps 622 mmHg 40%
    05:00 +5°C° 0 mm 0 mps 622 mmHg 40%
    06:00 +5°C° 0 mm 0 mps 622 mmHg 40%
    07:00 +7°C° 0 mm 0 mps 623 mmHg 35%
    08:00 +9°C° 0 mm 0 mps 623 mmHg 30%
    09:00 +12°C° 0 mm 0 mps 624 mmHg 25%
    10:00 +14°C° 0 mm 1 mps 624 mmHg 23%
    11:00 +15°C° 0 mm 1 mps 624 mmHg 21%
    12:00 +16°C° 0 mm 1 mps 625 mmHg 20%
    13:00 +16°C° 0 mm 2 mps 624 mmHg 19%
    14:00 +16°C° 0 mm 2 mps 624 mmHg 19%
    15:00 +16°C° 0 mm 2 mps 624 mmHg 18%
    16:00 +15°C° 0 mm 1 mps 623 mmHg 22%
    17:00 +13°C° 0 mm 1 mps 623 mmHg 25%
    18:00 +12°C° 0 mm 1 mps 622 mmHg 29%
    19:00 +11°C° 0 mm 1 mps 622 mmHg 31%
    20:00 +10°C° 0 mm 1 mps 622 mmHg 33%
    21:00 +9°C° 0 mm 0 mps 621 mmHg 35%
    22:00 +8°C° 0 mm 0 mps 621 mmHg 35%
    23:00 +9°C° 0 mm 1 mps 621 mmHg 35%

    Tomorrow, 22 October, Sunday

    Time Temperature Precipitation Wind Pressure Humidity
    00:00 +8°C° 0 mm 1 mps 621 mmHg 35%
    01:00 +8°C° 0 mm 1 mps 620 mmHg 33%
    02:00 +7°C° 0 mm 1 mps 620 mmHg 32%
    03:00 +7°C° 0 mm 1 mps 620 mmHg 30%
    04:00 +7°C° 0 mm 1 mps 620 mmHg 30%
    05:00 +7°C° 0 mm 1 mps 620 mmHg 29%
    06:00 +6°C° 0 mm 1 mps 620 mmHg 29%
    07:00 +9°C° 0 mm 1 mps 621 mmHg 26%
    08:00 +10°C° 0 mm 2 mps 622 mmHg 24%
    09:00 +13°C° 0 mm 2 mps 623 mmHg 21%
    10:00 +13°C° 0 mm 3 mps 622 mmHg 20%
    11:00 +14°C° 0 mm 3 mps 622 mmHg 19%
    12:00 +15°C° 0 mm 4 mps 622 mmHg 18%
    13:00 +15°C° 0 mm 4 mps 622 mmHg 18%
    14:00 +15°C° 0 mm 4 mps 622 mmHg 17%
    15:00 +17°C° 0 mm 4 mps 622 mmHg 17%
    16:00 +14°C° 0 mm 3 mps 621 mmHg 19%
    17:00 +14°C° 0 mm 2 mps 621 mmHg 21%
    18:00 +12°C° 0 mm 1 mps 620 mmHg 23%
    19:00 +12°C° 0 mm 1 mps 620 mmHg 24%
    20:00 +11°C° 0 mm 1 mps 620 mmHg 25%
    21:00 +10°C° 0 mm 1 mps 620 mmHg 25%
    22:00 +10°C° 0 mm 1 mps 620 mmHg 26%
    23:00 +10°C° 0 mm 1 mps 620 mmHg 26%

    Day after tomorrow, 23 October, Monday

    Time Temperature Precipitation Wind Pressure Humidity
    00:00 +8°C° 0 mm 2 mps 620 mmHg 27%
    01:00 +8°C° 0 mm 2 mps 620 mmHg 28%
    02:00 +8°C° 0 mm 2 mps 620 mmHg 30%
    03:00 +7°C° 0 mm 2 mps 620 mmHg 31%
    04:00 +7°C° 0 mm 2 mps 620 mmHg 33%
    05:00 +6°C° 0 mm 2 mps 620 mmHg 35%
    06:00 +7°C° 0 mm 1 mps 620 mmHg 37%
    07:00 +8°C° 0 mm 2 mps 621 mmHg 33%
    08:00 +10°C° 0 mm 2 mps 622 mmHg 30%
    09:00 +13°C° 0 mm 2 mps 623 mmHg 27%
    10:00 +14°C° 0 mm 2 mps 623 mmHg 25%
    11:00 +15°C° 0 mm 2 mps 624 mmHg 24%
    12:00 +16°C° 0 mm 2 mps 624 mmHg 22%
    13:00 +16°C° 0 mm 2 mps 624 mmHg 21%
    14:00 +16°C° 0 mm 2 mps 624 mmHg 20%
    15:00 +17°C° 0 mm 2 mps 624 mmHg 19%
    16:00 +15°C° 0 mm 2 mps 624 mmHg 23%
    17:00 +14°C° 0 mm 1 mps 623 mmHg 26%
    18:00 +12°C° 0 mm 1 mps 623 mmHg 29%
    19:00 +12°C° 0 mm 1 mps 623 mmHg 31%
    20:00 +11°C° 0 mm 1 mps 623 mmHg 33%
    21:00 +10°C° 0 mm 1 mps 623 mmHg 35%
    22:00 +10°C° 0 mm 1 mps 622 mmHg 37%
    23:00 +10°C° 0 mm 1 mps 622 mmHg 38%

    24 October, Tuesday

    Time Temperature Precipitation Wind Pressure Humidity
    00:00 +9°C° 0 mm 1 mps 622 mmHg 39%
    01:00 +9°C° 0 mm 1 mps 622 mmHg 40%
    02:00 +8°C° 0 mm 1 mps 622 mmHg 40%
    03:00 +8°C° 0 mm 1 mps 621 mmHg 41%
    04:00 +8°C° 0 mm 1 mps 621 mmHg 41%
    05:00 +7°C° 0 mm 1 mps 621 mmHg 41%
    06:00 +7°C° 0 mm 1 mps 621 mmHg 42%
    07:00 +9°C° 0 mm 1 mps 622 mmHg 37%
    08:00 +11°C° 0 mm 1 mps 624 mmHg 32%
    09:00 +14°C° 0 mm 1 mps 625 mmHg 27%
    10:00 +15°C° 0 mm 1 mps 625 mmHg 25%
    11:00 +16°C° 0 mm 2 mps 625 mmHg 23%
    12:00 +17°C° 0 mm 3 mps 625 mmHg 21%
    13:00 +17°C° 0 mm 2 mps 625 mmHg 21%
    14:00 +17°C° 0 mm 2 mps 625 mmHg 21%
    15:00 +17°C° 0 mm 2 mps 625 mmHg 21%
    16:00 +16°C° 0 mm 2 mps 625 mmHg 24%
    17:00 +15°C° 0 mm 1 mps 625 mmHg 27%
    18:00 +13°C° 0 mm 1 mps 624 mmHg 30%
    19:00 +13°C° 0 mm 1 mps 624 mmHg 32%
    20:00 +12°C° 0 mm 1 mps 625 mmHg 33%
    21:00 +11°C° 0 mm 1 mps 625 mmHg 34%
    22:00 +11°C° 0 mm 1 mps 625 mmHg 35%
    23:00 +11°C° 0 mm 1 mps 625 mmHg 35%

    25 October, Wednesday

    Time Temperature Precipitation Wind Pressure Humidity
    00:00 +11°C° 0 mm 1 mps 624 mmHg 35%
    01:00 +10°C° 0 mm 1 mps 624 mmHg 36%
    02:00 +10°C° 0 mm 1 mps 624 mmHg 37%
    03:00 +10°C° 0 mm 1 mps 624 mmHg 37%
    04:00 +9°C° 0 mm 1 mps 625 mmHg 38%
    05:00 +9°C° 0 mm 1 mps 625 mmHg 39%
    06:00 +9°C° 0 mm 1 mps 625 mmHg 40%
    07:00 +11°C° 0 mm 1 mps 626 mmHg 35%
    08:00 +14°C° 0 mm 1 mps 627 mmHg 30%
    09:00 +16°C° 0 mm 1 mps 628 mmHg 26%
    10:00 +17°C° 0 mm 2 mps 628 mmHg 25%
    11:00 +18°C° 0 mm 2 mps 628 mmHg 23%
    12:00 +19°C° 0 mm 2 mps 628 mmHg 22%
    13:00 +19°C° 0 mm 2 mps 628 mmHg 22%
    14:00 +20°C° 0 mm 3 mps 628 mmHg 22%
    15:00 +20°C° 0 mm 3 mps 628 mmHg 22%
    16:00 +18°C° 0 mm 2 mps 627 mmHg 26%
    17:00 +17°C° 0 mm 2 mps 627 mmHg 30%
    18:00 +15°C° 0 mm 1 mps 626 mmHg 34%
    19:00 +14°C° 0 mm 1 mps 626 mmHg 37%
    20:00 +14°C° 0 mm 1 mps 626 mmHg 39%
    21:00 +13°C° 0 mm 1 mps 627 mmHg 41%
    22:00 +13°C° 0 mm 1 mps 626 mmHg 42%
    23:00 +12°C° 0 mm 1 mps 626 mmHg 42%

    26 October, Thursday

    Time Temperature Precipitation Wind Pressure Humidity
    00:00 +12°C° 0 mm 1 mps 626 mmHg 43%
    01:00 +12°C° 0 mm 1 mps 626 mmHg 42%
    02:00 +12°C° 0 mm 1 mps 626 mmHg 41%
    03:00 +12°C° 0 mm 1 mps 626 mmHg 40%
    04:00 +12°C° 0 mm 1 mps 626 mmHg 40%
    05:00 +12°C° 0 mm 1 mps 626 mmHg 40%
    06:00 +11°C° 0 mm 1 mps 626 mmHg 41%
    07:00 +13°C° 0 mm 1 mps 627 mmHg 37%
    08:00 +15°C° 0 mm 1 mps 627 mmHg 33%
    09:00 +18°C° 0 mm 1 mps 628 mmHg 30%
    10:00 +19°C° 0 mm 2 mps 628 mmHg 29%
    11:00 +20°C° 0 mm 3 mps 628 mmHg 28%
    12:00 +21°C° 0 mm 4 mps 628 mmHg 27%
    13:00 +21°C° 0 mm 4 mps 628 mmHg 26%
    14:00 +22°C° 0 mm 4 mps 628 mmHg 25%
    15:00 +22°C° 0 mm 4 mps 627 mmHg 24%
    16:00 +20°C° 0 mm 4 mps 627 mmHg 26%
    17:00 +19°C° 0 mm 3 mps 626 mmHg 29%
    18:00 +17°C° 0 mm 2 mps 626 mmHg 32%
    19:00 +17°C° 0 mm 2 mps 626 mmHg 33%
    20:00 +16°C° 0 mm 2 mps 626 mmHg 35%
    21:00 +15°C° 0 mm 2 mps 625 mmHg 36%
    22:00 +15°C° 0 mm 2 mps 625 mmHg 36%
    23:00 +15°C° 0 mm 2 mps 625 mmHg 37%
    Show more